sat.trackr.live / text

‹ back to catalog

BEESAT-1

NORAD 35933 · 2009-051C

PAYLOAD ACTIVE UNKNOWN

§ Identity

Operator
Country
GER
Launch date
2009-09-23
Launch site
SRILR
Launch vehicle
Mass (kg)
RCS (m²)
0.03

Purposes: comms, tech_demo

External: N2YO · Heavens-Above · Gunter

§ Orbital elements

Epoch: 2026-09-19T23:32:56.626080Z

Period
98.51 min
Inclination
98.3868°
Eccentricity
0.0004187
Mean motion
14.61845269 rev/d
Perigee alt
684.3 km
Apogee alt
690.2 km
Semi-major
7,065.4 km
B*
1.0890e-4
RAAN
171.9170°
Arg perigee
302.4264°
Mean anomaly
57.6531°
Rev number
90,303

§ Raw data

BEESAT-11 35933U 09051C   26262.98121095  .00000495  00000+0  10890-3 0  99992 35933  98.3868 171.9170 0004187 302.4264  57.6531 14.61845269903032

JSON: /api/v1/satellites/35933 · /tle

For live sub-satellite position, see the globe view (requires WebGL).

§ Visibility from observer

Set your observer location to see the next 7 days of passes ≥ 10°. The values pass through the URL so the page stays shareable.

No JS? Fill the form by hand. The geolocation button needs JavaScript.

§ Radio — SatNOGS DB

ModeDescriptionDownlinkUplink
GMSK Digipeater (Mobitex, idle mode: 10 sec interval) 435.950 MHz 435.950 MHz
GMSK TLM Mobitex GMSK 435.950 MHz
FM CW Beacon (F2A) (inactive) 435.950 MHz

3 transmitters · refreshed weekly from db.satnogs.org